Date String (YYYY-MM-DD hh:mm:ss) UTC,Instrument flags,absolute air pressure of the measurement (hPa),sample flow rate (lpm),inlet stack bypass flow (lpm),air temperature of the measurement (°C),ambient temperature measured by the external sensor (°C),aerosol sample conditioner tube jacket temperature (°C),OPC LED temperature (°C),internal box temperature (°C),relative humidity of the measurement (%),span deviation,mass concentration of particles derived from Lorenz-Mie calculation of OPC scattering (μg/m³),mass concentration of particles derived from Lorenz-Mie calculation of OPC scattering (μg/m³),mass concentration of particles derived from Lorenz-Mie calculation of OPC scattering (μg/m³)
DateTimeUTC,F1_M11,P_M11,Q1_M11,Q2_M11,T1_M11,T2_M11,T3_M11,T4_M11,T5_M11,U1_M11,ZSPAN_M11,X0_M11,X2_M11,X1_M11
2024-06-14 12:00:00,SystemResetWarning,0833.2,5.01,000.00,030.1,029.5,000.0,038.4,031.9,035.5,0000.0,0035.72,0010.51,0007.25
2024-06-14 12:01:00,SystemResetWarning,0833.2,5.00,000.00,030.1,029.5,000.0,038.4,032.0,035.4,0000.1,0036.62,0010.48,0007.24
2024-06-14 12:02:00,SystemResetWarning,0833.2,5.00,000.00,030.2,029.6,000.0,038.4,032.0,035.2,0000.5,0038.34,0010.50,0007.24
2024-06-14 12:03:00,SystemResetWarning,0833.3,4.99,000.00,030.2,029.6,000.0,038.5,032.0,035.1,0000.7,0037.73,0010.55,0007.23
2024-06-14 12:04:00,SystemResetWarning,0833.3,5.00,000.00,030.3,029.7,000.0,038.5,032.1,035.0,0000.7,0038.32,0010.61,0007.24
2024-06-14 12:05:00,SystemResetWarning,0833.2,5.00,000.00,030.3,029.7,000.0,038.5,032.1,034.9,0000.1,0036.79,0010.67,0007.23
2024-06-14 12:06:00,SystemResetWarning,0833.3,5.00,000.00,030.3,029.8,000.0,038.5,032.1,034.9,0000.2,0034.99,0010.61,0007.24
2024-06-14 12:07:00,SystemResetWarning,0833.3,5.00,000.00,030.4,029.8,000.0,038.6,032.2,034.9,0000.5,0034.46,0010.59,0007.21
2024-06-14 12:08:00,SystemResetWarning,0833.3,5.00,000.00,030.4,029.9,000.0,038.6,032.2,034.8,0000.6,0033.91,0010.52,0007.20
2024-06-14 12:09:00,SystemResetWarning,0833.4,5.01,000.00,030.4,029.9,000.0,038.6,032.2,034.7,0000.8,0033.98,0010.48,0007.17
2024-06-14 12:10:00,SystemResetWarning,0833.4,5.00,000.00,030.5,029.9,000.0,038.6,032.3,034.5,0000.6,0033.52,0010.39,0007.14
2024-06-14 12:11:00,SystemResetWarning,0833.4,5.01,000.00,030.5,030.0,000.0,038.7,032.3,034.4,0000.8,0031.83,0010.41,0007.13
2024-06-14 12:12:00,SystemResetWarning,0833.4,5.01,000.00,030.5,030.0,000.0,038.7,032.3,034.3,0000.8,0032.52,0010.51,0007.13
2024-06-14 12:13:00,SystemResetWarning,0833.4,5.00,000.00,030.6,030.0,000.0,038.7,032.3,034.2,0000.4,0031.61,0010.53,0007.12
2024-06-14 12:14:00,SystemResetWarning,0833.4,4.99,000.00,030.6,030.1,000.0,038.7,032.3,034.1,0000.6,0031.12,0010.50,0007.11
2024-06-14 12:15:00,SystemResetWarning,0833.4,4.99,000.00,030.6,030.1,000.0,038.8,032.3,034.1,0000.5,0031.33,0010.44,0007.09
2024-06-14 12:16:00,SystemResetWarning,0833.4,4.99,000.00,030.6,030.1,000.0,038.8,032.3,034.0,0000.8,0032.08,0010.35,0007.07
2024-06-14 12:17:00,SystemResetWarning,0833.4,5.01,000.00,030.7,030.1,000.0,038.8,032.4,033.9,0000.7,0032.21,0010.39,0007.08
2024-06-14 12:18:00,SystemResetWarning,0833.4,5.00,000.00,030.7,030.1,000.0,038.9,032.4,033.8,0000.5,0033.17,0010.37,0007.07
2024-06-14 12:19:00,SystemResetWarning,0833.4,5.01,000.00,030.7,030.2,000.0,038.9,032.4,033.8,0000.4,0033.89,0010.30,0007.07
2024-06-14 12:20:00,SystemResetWarning,0833.4,5.01,000.00,030.7,030.2,000.0,038.9,032.4,033.8,0000.3,0036.27,0010.31,0007.06
2024-06-14 12:21:00,SystemResetWarning,0833.4,5.00,000.00,030.8,030.2,000.0,039.0,032.4,033.9,0000.6,0039.04,0010.37,0007.07
2024-06-14 12:22:00,SystemResetWarning,0833.4,5.00,000.00,030.8,030.2,000.0,039.0,032.5,033.8,0001.1,0039.13,0010.44,0007.06
2024-06-14 12:23:00,SystemResetWarning,0833.4,5.00,000.00,030.8,030.3,000.0,039.0,032.5,033.8,0000.4,0038.37,0010.31,0007.06
2024-06-14 12:24:00,SystemResetWarning,0833.4,4.99,000.00,030.8,030.3,000.0,039.0,032.5,033.8,0000.8,0038.47,0010.29,0007.06
2024-06-14 12:25:00,SystemResetWarning,0833.4,5.00,000.00,030.9,030.3,000.0,039.1,032.5,033.7,0000.9,0040.08,0010.33,0007.07
2024-06-14 12:26:00,SystemResetWarning,0833.2,5.00,000.00,030.8,029.2,000.0,039.1,032.0,033.9,0000.9,0041.58,0010.43,0007.10
2024-06-14 12:27:00,SystemResetWarning,0833.2,5.01,000.00,030.4,027.0,000.0,039.1,031.0,034.8,0001.1,0042.50,0010.37,0007.10
2024-06-14 12:28:00,SystemResetWarning,0833.1,5.01,000.00,030.0,026.5,000.0,039.1,030.6,035.8,0000.8,0043.59,0010.26,0007.09
2024-06-14 12:29:00,SystemResetWarning,0833.1,5.01,000.00,029.8,026.8,000.0,038.9,030.7,036.1,0000.9,0044.11,0010.19,0007.10
2024-06-14 12:30:00,SystemResetWarning,0833.2,5.00,000.00,029.8,027.2,000.0,038.8,031.0,036.2,0001.1,0044.16,0010.33,0007.13
2024-06-14 12:31:00,SystemResetWarning,0833.2,5.00,000.00,029.8,027.7,000.0,038.7,031.2,036.2,0001.2,0042.95,0010.37,0007.15
2024-06-14 12:32:00,SystemResetWarning,0833.3,5.00,000.00,029.8,028.0,000.0,038.6,031.3,036.3,0001.8,0040.40,0010.33,0007.17
2024-06-14 12:33:00,SystemResetWarning,0833.3,5.01,000.00,029.8,028.3,000.0,038.5,031.4,036.4,0001.7,0040.91,0010.23,0007.17
2024-06-14 12:34:00,SystemResetWarning,0833.4,5.00,000.00,029.9,028.6,000.0,038.5,031.5,036.4,0001.9,0040.89,0010.25,0007.18
2024-06-14 12:35:00,SystemResetWarning,0833.4,5.00,000.00,029.9,028.8,000.0,038.5,031.6,036.4,0001.9,0040.97,0010.21,0007.19
2024-06-14 12:36:00,SystemResetWarning,0833.4,4.99,000.00,030.0,029.0,000.0,038.5,031.7,036.4,0001.7,0040.45,0010.13,0007.19
2024-06-14 12:37:00,SystemResetWarning,0833.4,5.00,000.00,030.0,029.1,000.0,038.5,031.8,036.3,0001.8,0037.73,0010.02,0007.17
2024-06-14 12:38:00,SystemResetWarning,0833.3,5.00,000.00,030.0,029.2,000.0,038.5,031.8,036.2,0001.9,0036.67,0010.18,0007.19
2024-06-14 12:39:00,SystemResetWarning,0833.3,5.00,000.00,030.1,029.3,000.0,038.5,031.9,036.1,0001.9,0037.52,0010.25,0007.20
2024-06-14 12:40:00,SystemResetWarning,0833.3,4.99,000.00,030.1,029.4,000.0,038.5,031.9,036.0,0001.8,0036.84,0010.33,0007.19
2024-06-14 12:41:00,SystemResetWarning,0833.3,5.00,000.00,030.2,029.5,000.0,038.5,032.0,035.9,0001.6,0038.03,0010.32,0007.17
2024-06-14 12:42:00,SystemResetWarning,0833.4,5.00,000.00,030.2,029.6,000.0,038.5,032.0,035.8,0001.6,0037.56,0010.25,0007.17
2024-06-14 12:43:00,SystemResetWarning,0833.4,4.99,000.00,030.2,029.6,000.0,038.5,032.0,035.8,0000.9,0038.62,0010.29,0007.16
2024-06-14 12:44:00,SystemResetWarning,0833.4,4.99,000.00,030.3,029.7,000.0,038.6,032.1,035.8,0000.7,0039.68,0010.29,0007.15
2024-06-14 12:45:00,SystemResetWarning,0833.4,5.00,000.00,030.3,029.7,000.0,038.6,032.1,035.7,0000.8,0040.12,0010.25,0007.14
2024-06-14 12:46:00,SystemResetWarning,0833.4,5.01,000.00,030.4,029.8,000.0,038.6,032.2,035.7,0000.8,0039.66,0010.32,0007.16
2024-06-14 12:47:00,SystemResetWarning,0833.4,4.99,000.00,030.4,029.8,000.0,038.6,032.2,035.7,0000.7,0039.53,0010.38,0007.18
2024-06-14 12:48:00,SystemResetWarning,0833.4,5.01,000.00,030.4,029.9,000.0,038.7,032.2,035.5,0000.5,0041.49,0010.44,0007.19
2024-06-14 12:49:00,SystemResetWarning,0833.4,5.00,000.00,030.5,029.9,000.0,038.7,032.3,035.5,0000.7,0041.92,0010.40,0007.18
2024-06-14 12:50:00,SystemResetWarning,0833.4,5.00,000.00,030.5,030.0,000.0,038.7,032.3,035.4,0001.1,0040.47,0010.36,0007.16
2024-06-14 12:51:00,SystemResetWarning,0833.4,5.00,000.00,030.5,030.0,000.0,038.7,032.3,035.4,0001.3,0040.25,0010.40,0007.17
2024-06-14 12:52:00,SystemResetWarning,0833.4,5.00,000.00,030.6,030.0,000.0,038.8,032.4,035.5,0001.4,0041.69,0010.34,0007.17
2024-06-14 12:53:00,SystemResetWarning,0833.4,5.00,000.00,030.6,030.1,000.0,038.8,032.4,035.4,0001.0,0043.62,0010.43,0007.16
2024-06-14 12:54:00,SystemResetWarning,0833.4,4.99,000.00,030.6,030.1,000.0,038.8,032.4,035.3,0001.0,0044.59,0010.42,0007.17
2024-06-14 12:55:00,SystemResetWarning,0833.4,5.00,000.00,030.7,030.1,000.0,038.9,032.4,035.3,0000.8,0044.68,0010.48,0007.20
2024-06-14 12:56:00,SystemResetWarning,0833.4,5.00,000.00,030.7,030.1,000.0,038.9,032.5,035.3,0000.7,0042.43,0010.47,0007.21
2024-06-14 12:57:00,SystemResetWarning,0833.3,5.00,000.00,030.7,030.2,000.0,038.9,032.5,035.3,0000.9,0041.35,0010.42,0007.19
2024-06-14 12:58:00,SystemResetWarning,0833.3,5.00,000.00,030.7,030.2,000.0,039.0,032.5,035.4,0000.6,0041.37,0010.36,0007.17
2024-06-14 12:59:00,SystemResetWarning,0833.3,5.00,000.00,030.8,030.2,000.0,039.0,032.5,035.3,0001.0,0040.19,0010.39,0007.17
